Regional Weather Roundup
Issued by NWS Newport/Morehead, NC

Current Version | Previous Version | Graphics & Text | Print | Product List | Glossary Off
Versions: 1 2 3 4 5 6 7 8 9 10 11 12 13 14 15 16 17 18 19 20 21 22 23 24 25 26 27 28 29 30 31 32 33 34 35 36 37 38 39 40 41 42 43 44 45 46 47 48 49 50

000
ASUS42 KMHX 152013
RWRMHX
WEATHER ROUNDUP FOR EASTERN NORTH CAROLINA
NATIONAL WEATHER SERVICE NEWPORT/MOREHEAD CITY NC
300 PM EST FRI DEC 15 2017

NOTE: "FAIR" INDICATES FEW OR NO CLOUDS BELOW 12,000 FEET
WITH NO SIGNIFICANT WEATHER AND/OR OBSTRUCTIONS TO VISIBILITY

NCZ015>017-031-032-045>047-102-103-152100-
NORTH COAST

CITY           SKY/WX    TMP DP  RH WIND       PRES   REMARKS
EDENTON        CLOUDY    57  38  49 W13       29.88R
ELIZABETH CITY CLOUDY    57  40  52 W17G25    29.83S
KITTY HAWK     CLOUDY    57  36  45 SW9G20    29.82R
MANTEO         CLOUDY    56  38  49 W13G18    29.84S

$$

NCZ045>047-081-094-103-104-152100-
CENTRAL COAST

CITY           SKY/WX    TMP DP  RH WIND       PRES   REMARKS
FRISCO         CLOUDY    59  42  53 W15G24    29.88R

$$

NCZ095-097-098-100-101-152100-
SOUTHERN COAST

CITY           SKY/WX    TMP DP  RH WIND       PRES   REMARKS
BEAUFORT       PTSUNNY   56  47  71 W10       29.90R
CEDAR ISLAND   NOT AVBL
JACKSONVILLE   CLOUDY    59  36  42 SW10      29.89S
PINEY ISLAND     N/A    N/A N/A N/A SW12      29.89R
WILMINGTON     CLOUDY    60  39  45 W14       29.91S


$$

NCZ011>013-027>030-043-044-078>080-089-090>093-098-152100-
COASTAL PLAIN

CITY           SKY/WX    TMP DP  RH WIND       PRES   REMARKS
AHOSKIE        PTSUNNY   45  32  60 CALM      29.90S
CLINTON        SUNNY     56  37  47 SW12      29.91F
ELIZABETHTOWN  NOT AVBL
GOLDSBORO      CLOUDY    53  35  50 W14       29.88S
GREENVILLE     CLOUDY    54  36  50 W6        29.92R
HAVELOCK       CLOUDY    58  39  49 SW14      29.90R
KENANSVILLE    CLOUDY    59  36  41 W7        29.89F
KINSTON        MOSUNNY   55  36  47 W9        29.90S
NEW BERN       MOSUNNY   59  37  44 W12       29.89R
RICHLANDS      CLOUDY    59  37  44 SW9       29.89S
ROCKY MOUNT    CLOUDY    46  31  55 NW10      29.91R
WASHINGTON     MOSUNNY   57  35  43 W13       29.88S
WHITEVILLE     MOSUNNY   58  37  44 SW5       29.92F

$$

AMZ130-135-150-152-154-156-158-170-250-252-270-ANZ085-086-088-633-658-670-152100-
MARINE OBSERVATIONS

STATION/POSITION TIME  TEMP    WIND        PRES    WAVE   SWELL
                       AIR SEA DIR/SP/G            HT/PER HT/PER
                 (UTC) (F)     (DEG/KT/KT) (MB)    (FT/S) (FT/S)
CHESAPEAKE LIGHT NOT AVBL
64 E VA BEACH    1950   58 60  210/ 14/ 19 1009.4    4/ 5   2/11
DUCK             1948   54 54  250/ 16/ 19 1009.5
2 E DUCK         2000      55                N/A     3/ 5
OREGON INLET     1936   52 49  210/ 13/ 16 1010.6
13E OREGON INLT  1948      64                N/A     3/ 4   2/ 8
HATTERAS CG      1948   58 55  240/ 12/ 16 1011.5
DIAMOND BUOY     1950   63 74  240/ 23/ 31 1011.3    6/ 6
CAPE LOOKOUT     2000          250/ 13/ 16 1012.6
BEAUFORT LAB     1948   55 50  250/  7/ 10 1012.5
30 SE NEW RVR IN 1908   61 64  230/ 16/ 19 1012.3
30 SE NEW RVR IN 2000      64                N/A     4/ 6
27 SE WRIGHTSVLE 1908   59 64  230/ 17/ 21 1012.9
5 SE WRIGHTSVLE  NOT AVBL
225 S CAPE HAT   1950   69 74  240/ 16/ 19 1014.4    5/ 7   2/11
41 SE CHARLESTON 1950   64 73  250/ 21/ 27 1014.1    4/ 5

$$



USA.gov is the U.S. government's official web portal to all federal, state and local government web resources and services.